星链-30260 (STARLINK-30260 )

导读

STARLINK-30260是美国太空探索技术公司(SpaceX)星链(Starlink)星座的成员卫星,于2023年8月8日发射升空。作为低轨互联网通信卫星,它运行在近地轨道,依托星链星座全球覆盖的优势,可为偏远地区提供高速互联网接入,支持视频通话、在线办公等网络服务,助力实现全球无缝网络覆盖,推动卫星互联网的普及与应用。

Basic Information
目录编号:
57524
目录名称:
STARLINK-30260
国际标识:
2023-115D
轨道中心:
EARTH
卫星名称:
星链-30260
卫星全名:
星链-30260 (STARLINK-30260 )
卫星状态:
在轨 (已飞行1045 天)
发射日期:
2023-08-08 UTC
国别 :
美国 (US)
星等 :
--
Orbit Information
数据来源 国际轨道数据 AOE轨道数据
星历时间 2026-06-17T00:47:02+0800
1天前
查看轨道信息
2026-06-15T07:00:00+0800
3天前
查看轨道信息
半长轴 6861.188km 6861.182km
偏心率 0.0001467 0.0001451
轨道倾角 43.009° 43.001°
近地点辐角 279.544° 243.125°
升交点赤经 162.453° 172.287°
平近点角 80.525° 251.494°
近地点 482.044km 482.049km
远地点 484.058km 484.041km
周期 94.267分钟 94.267分钟
每日圈数 15.275794 15.275814
Detailed Information
固有亮度:
5
最大亮度:
0.3
卫星平台:
Starlink v2.0 mini
覆盖范围:
全球
运营商:
太空探索技术公司
运营商所在国:
美国
制造商(研发单位):
太空探索技术公司
制造商所在国:
美国
使用方式:
暂无
Satellite Introduction
星链(Starlink)计划是由太空探索技术公司(SpaceX)提出的一个巨型低轨卫星互联网星座项目,计划在2019年至2024年间在太空搭建由约1.2万颗卫星组成的“星链”网络,其中1584颗将部署在地球上空550千米处的近地轨道,并从2020年开始工作。该卫星仍在工作。
2D Orbit Map
3D Orbit Map
Orbit Altitude Analysis Chart
Orbit Inclination Analysis Chart
Orbit Comprehensive Analysis Chart
View Comprehensive Chart